This is the latest recevied weather packets stored in our database for station/object WX7FGZ-3. If no packets are shown the sender has not sent any weather packets the latest 10 day(s).
| Time | Temp. | Humidity | Pressure | Rain* | Wind** | Luminosity | Snow |
|---|---|---|---|---|---|---|---|
| 1777711270 | 1.11° C | 49% | 1018.5 hPa | 0 mm | - | - | - |
| 1777710670 | 1.11° C | 44% | 1018.2 hPa | 0 mm | - | - | - |
| 1777710370 | 1.11° C | 44% | 1018.3 hPa | 0 mm | - | - | - |
| 1777710069 | 1.11° C | 42% | 1018.1 hPa | 0 mm | - | - | - |
| 1777709769 | 1.11° C | 40% | 1018.2 hPa | 0 mm | - | - | - |
| 1777709469 | 1.11° C | 40% | 1018.2 hPa | 0 mm | - | - | - |
| 1777708868 | 1.67° C | 45% | 1018.1 hPa | 0 mm | - | - | - |
| 1777708267 | 1.67° C | 44% | 1018.2 hPa | 0 mm | - | - | - |
| 1777707967 | 2.22° C | 43% | 1018.2 hPa | 0 mm | - | - | - |
| 1777707667 | 1.67° C | 44% | 1018.2 hPa | 0 mm | - | - | - |
| 1777707367 | 1.11° C | 44% | 1018.2 hPa | 0 mm | - | - | - |
| 1777707067 | 1.11° C | 44% | 1018.3 hPa | 0 mm | - | - | - |
| 1777706766 | 1.67° C | 43% | 1018.2 hPa | 0 mm | - | - | - |
| 1777706466 | 1.11° C | 44% | 1018.2 hPa | 0 mm | - | - | - |
| 1777706166 | 1.11° C | 43% | 1018.2 hPa | 0 mm | - | - | - |
| 1777705865 | 1.11° C | 43% | 1018.1 hPa | 0 mm | - | - | - |
| 1777705565 | 1.11° C | 40% | 1018.2 hPa | 0 mm | - | - | - |
| 1777704664 | 1.67° C | 41% | 1018.2 hPa | 0 mm | - | - | - |
| 1777704364 | 1.67° C | 42% | 1018.2 hPa | 0 mm | - | - | - |
| 1777704064 | 1.11° C | 44% | 1018.1 hPa | 0 mm | - | - | - |
| 1777703163 | 1.11° C | 41% | 1018.1 hPa | 0 mm | - | - | - |
| 1777702862 | 1.11° C | 42% | 1018 hPa | 0 mm | - | - | - |
| 1777702563 | 1.11° C | 42% | 1018.1 hPa | 0 mm | - | - | - |
| 1777702262 | 1.11° C | 40% | 1018 hPa | 0 mm | - | - | - |
| 1777701961 | 1.11° C | 43% | 1017.9 hPa | 0 mm | - | - | - |
* Rain latest hour (hover to see other rain measurements)
** Current wind speed in m/s (hover to see current wind gust speed)